Showing default

GAOFEN 10R, 44622

Orbit data source: Space-Track

GAOFEN 10R, 44622 is a payload satellite owned by PLA SSF (CN) in SSO that was launched on Fri, 04 Oct 2019 UTC via a CHANG ZHENG 4C launch vehicle from the Taiyaun Space Center, China (TSC). Payload-class satellites include a variety of spacecraft equipped with specific instruments for various scientific and technological missions. These include communications satellites like Starlink; space stations such as the ISS; scientific satellites like the Hubble; Earth observation satellites from companies like Planet Labs, Umbra, and HawkEye 360; GPS; miniature CubeSats for education and research; and military/defense satellites.

Loading next visibility...
Identifier
44622, 2019-066A
Orbit
SSO
Country
Flag of CNCN / PRC
Related business
Manufacturer
SAST
Mission
Operational Defense Imaging
Bus & Motor
CS-L3000B?, Unknown motor
Mass
~3,000 kg wet, ~3,000 kg dry
Launch date (UTC)
2019-10-04 (6 years ago)
Launch vehicle
CHANG ZHENG 4C
Launch site
Taiyaun Space Center, China (TSC)
Object type
Payload
Rocket body
Debris
Shape & HBR
Box + 3 Pan, Unknown HBR
Radar Cross Section
10.846 m², Large (>1 m²)

Expand to show TLE details & history
Last TLE update: 11 hours ago

TLE from 11 hours ago
0 GAOFEN 10R
1 44622U 19066A   25309.94822096  .00002072  00000-0  26271-3 0  9991
2 44622  98.0217 257.3233 0008221 136.4179 223.7685 14.82821939329291
Epoch: 2025-11-05T22:45Z
TLE epoch observation values (Epoch: 2025-11-05T22:45:26.290Z)
Latitude
-0.00004°
Longitude
-129.44981°
Altitude
627.61 km
Speed
7.542 km/s
True Right ascension
17h 09m 17s
True Declination
0° 00' 00"
Sunlit
Object was in daylight at epoch
Visualization orbit readout
Latitude
Unknown
Longitude
Unknown
Altitude
Unknown
Speed
Unknown
Apparent Right ascension
Unknown
Apparent Declination
Unknown
Sunlit
N/A
Visualization observer readout
Local Sidereal Time
05:50:59
Azimuth
Unknown
Elevation
Unknown
Doppler factor
Unknown
Orbital elements
Apogee altitude
623.224 km
Perigee altitude
611.722 km
Semi-major axis
6,995.61 km
Eccentricity
0.00082
Inclination
98.0217°
RAAN
257.3233°
Arg. of periapsis
136.4179°
True anomaly
223.70338°
Mean anomaly
223.7685°
Eccentric anomaly
223.73594°
Mean motion
3.70941 °/min
Orbital period
97.05 mins
BSTAR
0.00026271
Loading maneuver chart data...
Computing Atmospheric mass density...
Loading historical data...
Loading historical data...
Loading historical data...
Loading historical data...
Loading historical data...
Loading historical data...
Loading historical data...
Other satellites on launch #66 in the year 2019 (2019-10-04 UTC)

Documentation

Showing up to 5 results
|